カタログに戻る

PALAPA B4

運用中通信GEO
NORAD 21964·PAYLOAD·🇮🇩 Indonesia

打ち上げ May 14, 1992 から Cape Canaveral Space Force Station

Loading…

TLE

最新Source: Space-Track

元期: Sep 14, 2026, 06:37 UTC

1 21964U 92027A   26257.27594431 -.00000255  00000-0  00000-0 0  9992
2 21964  13.3275  16.6172 0000214 335.6507  29.2111  0.99936074 48087

AllMySatでPALAPA B4をリアルタイム追跡

Download on the App Store